sat.trackr.live / text

‹ back to catalog

STARLINK-3947

NORAD 52607 · 2022-052K

PAYLOAD ACTIVE UNKNOWN

§ Identity

Operator
Country
US
Launch date
2022-05-14
Launch site
AFETR
Launch vehicle
Mass (kg)
RCS (m²)

Purposes: comms

External: N2YO · Heavens-Above · Gunter

§ Orbital elements

Epoch: 2026-09-19T23:33:56.312064Z

Period
94.01 min
Inclination
53.1593°
Eccentricity
0.0001324
Mean motion
15.31700618 rev/d
Perigee alt
469.8 km
Apogee alt
471.6 km
Semi-major
6,848.9 km
B*
9.5123e-6
RAAN
120.2180°
Arg perigee
82.9794°
Mean anomaly
277.1358°
Rev number
24,026

§ Raw data

STARLINK-39471 52607U 22052K   26262.98190176 -.00000070  00000+0  95123-5 0  99922 52607  53.1593 120.2180 0001324  82.9794 277.1358 15.31700618240260

JSON: /api/v1/satellites/52607 · /tle

For live sub-satellite position, see the globe view (requires WebGL).

§ Visibility from observer

Set your observer location to see the next 7 days of passes ≥ 10°. The values pass through the URL so the page stays shareable.

No JS? Fill the form by hand. The geolocation button needs JavaScript.